Location: Newark
(7.0858°N, 171.3717°E)
Time: 06:16:57
(UTC+00:00)

Courier 1B - Pass Details

Date: 05 December 2020
Orbit: 962 x 1209 km, 28.3° (Epoch: 20 January)

Event Time Altitude Azimuth Distance (km) Brightness Sun altitude
Rises 15:59:59 0° 288° (WNW) 3,906 - -36.2°
Reaches altitude 10° 16:02:48 10° 283° (WNW) 2,985 - -35.6°
Maximum altitude 16:09:52 48° 210° (SSW) 1,481 - -33.9°
Exits shadow 16:10:34 47° 194° (SSW) 1,508 8.4 -33.8°
Drops below altitude 10° 16:17:18 10° 138° (SE) 3,122 10.8 -32.2°
Sets 16:20:18 0° 132° (SE) 4,100 11.7 -31.5°
